Location: Poprad
(49.0500°N, 20.3000°E)
Time: 02:43:54
(UTC+01:00)

ISS - Visible Passes

Search period start: 16 December 2017 00:00
Search period end: 26 December 2017 00:00
Orbit: 402 x 406 km, 51.6° (Epoch: 16 December)

Date Brightness Start Highest point End Pass type
(mag) Time Alt. Az. Time Alt. Az. Time Alt. Az.
16 Dec -1.2 17:05:34 10° W 17:08:10 22° SW 17:10:44 10° SSE visible
17 Dec -1.9 16:13:03 10° W 16:16:04 34° SSW 16:19:05 10° SSE visible
18 Dec -0.2 16:58:48 10° WSW 16:59:47 11° SW 17:00:47 10° SSW visible
